Terug naar catalogus

FENGYUN 1C DEB

ActiefPO
NORAD 33678·DEBRIS·🇨🇳 China

Gelanceerd May 10, 1999 vanaf Taiyuan Satellite Launch Center

Loading…

Volgende Passages (komende 24 uur)

TLE

VersSource: Space-Track

Epoch: Sep 12, 2026, 16:48 UTC

1 33678U 99025DFP 26255.70025524  .00001213  00000-0  26200-3 0  9997
2 33678  99.0222 344.9240 0203441 137.9347 223.7667 14.48330390990609

Volg FENGYUN 1C DEB in realtime met AllMySat

Download on the App Store